Regional Weather Roundup
Issued by NWS

Home | Current Version | Previous Version | Graphics & Text | Print | Product List | Glossary On
Versions: 1 2 3 4 5 6 7 8 9 10 11 12 13 14 15 16 17 18 19 20 21 22 23 24 25 26 27 28 29 30 31 32 33 34 35 36 37 38 39 40 41 42 43 44 45 46 47 48 49 50
000
ASUS43 KIND 022209
RWRIN

WEATHER ROUNDUP FOR INDIANA
NATIONAL WEATHER SERVICE INDIANAPOLIS IN
600 PM EDT SUN AUG 02 2015

NOTE: "FAIR" INDICATES FEW OR NO CLOUDS BELOW 12,000 FEET WITH NO
SIGNIFICANT WEATHER AND/OR OBSTRUCTIONS TO VISIBILITY.

* - STATION DOES NOT REPORT WEATHER SUCH AS PRECIPITATION OR FOG.

+ - STATION NOT QUALITY CONTROLLED BY THE NATIONAL WEATHER SERVICE.
    USE DATA WITH CAUTION...ESPECIALLY DEWPOINT AND RELATIVE
    HUMIDITY OBSERVATIONS.

INZ001>003-010>013-019-020-022300-
NORTHWEST INDIANA

CITY           SKY/WX    TMP DP  RH WIND       PRES   REMARKS
GARY /AIRPORT/ MOSUNNY   90  68  48 SW26      29.72F
KNOX *+        PTSUNNY   86  61  42 SW16G25   29.75F
LA PORTE +     CLOUDY    89  65  45 SW18G25   29.74F
MICHIGAN CITY+ CLOUDY    88  64  45 SW16      29.72F
MONTICELLO +   SUNNY     89  66  47 SW17G26   29.81F
RENSSELAER +   PTSUNNY   88  64  45 SW17G26   29.79F
VALPARAISO     CLOUDY    90  68  48 SW24G31   29.74F

$$

LMZ046-743>745-022300-
SOUTHERN LAKE MICHIGAN

STATION/POSITION TIME  TEMP    WIND        PRES    WAVE
                       AIR SEA DIR/SP/G            HT
                 (UTC) (F)     (DEG/KT/KT) (MB)    (FT)
BURNS HARBOR     2122   87     210/ 20/ 25 1006.8F
MICHIGAN CITY    2100   86     190/ 18/ 21   N/A
5NW MICH CITY    2200   83 74  230/ 17/ 25   N/A     3

$$

INZ004-005-014>016-021>024-022300-
NORTH CENTRAL INDIANA

CITY           SKY/WX    TMP DP  RH WIND       PRES   REMARKS
ELKHART        MOSUNNY   88  57  35 SW15G23   29.74F
GOSHEN         SUNNY     87  64  46 SW21G30   29.74F
LOGANSPORT +   SUNNY     88  59  37 SW18G25   29.82F
PERU/GRISSOM   SUNNY     89  68  49 SW18      29.81F
ROCHESTER +    MOSUNNY   88  64  45 SW13G24   29.80F
SOUTH BEND     PTSUNNY   87  63  44 SW17G25   29.72F
WARSAW +       SUNNY     88  64  45 SW7G23    29.78F

$$

INZ006>009-017-018-025>027-022300-
NORTHEAST INDIANA

CITY           SKY/WX    TMP DP  RH WIND       PRES   REMARKS
ANGOLA *+      SUNNY     90  84  84 SW14      29.77F HX 115
AUBURN +       SUNNY     88  61  40 SW13G24   29.80F
FORT WAYNE     MOSUNNY   88  64  44 SW24      29.82F
HUNTINGTON +   SUNNY     87  67  51 SW10G20   29.82F

$$

INZ028-029-035-036-043>045-051>053-022300-
WEST CENTRAL INDIANA

CITY           SKY/WX    TMP DP  RH WIND       PRES   REMARKS
CRAWFORDSVL +  SUNNY     84  65  51 SW7G16      N/A
GREENCASTLE +  SUNNY     84  64  51 S7        29.89S
LAFAYETTE      SUNNY     87  69  54 SW9G21    29.82F
TERRE HAUTE    SUNNY     89  69  51 SW12      29.87F

$$

INZ030>032-037>040-046>048-054>057-064-065-022300-
CENTRAL INDIANA

CITY           SKY/WX    TMP DP  RH WIND       PRES   REMARKS
FISHERS *+     MOSUNNY   86  70  58 S14       29.87F
FRANKFORT +    SUNNY     86  70  59 S13G18    29.87F
GREENWOOD *+   PTSUNNY   86  63  45 S10G17    29.90S
INDIANAPOLIS   MOSUNNY   86  67  52 S16       29.87F
-EAGLE CREEK   MOSUNNY   86  68  54 SW10      29.87F
KOKOMO *+      MOSUNNY   88  66  48 SW20G28   29.84F
MARION +       SUNNY     86  64  46 SW15G23   29.85F
MT COMFORT *+  MOSUNNY   86  59  39 S12       29.89S
SHELBYVILLE    MOSUNNY   87  66  49 SW10      29.89S
ZIONSVILLE +   MOSUNNY   86  65  49 SW14G21   29.89S

$$

INZ033-034-041-042-049-050-058-059-022300-
EAST CENTRAL INDIANA

CITY           SKY/WX    TMP DP  RH WIND       PRES   REMARKS
MUNCIE         SUNNY     85  66  53 SW14G21   29.87S

$$

INZ060-061-067>069-081>083-085>088-022300-
SOUTHWEST INDIANA

CITY           SKY/WX    TMP DP  RH WIND       PRES   REMARKS
EVANSVILLE     SUNNY     89  67  47 S10       29.91F
HUNTINGBURG *+ SUNNY     88  63  42 S7        29.92S
WASHINGTON +   SUNNY     88  60  39 SW8       29.90S

$$

INZ062-063-066-070>080-084-089>092-022300-
SOUTH CENTRAL AND SOUTHEAST INDIANA

CITY           SKY/WX    TMP DP  RH WIND       PRES   REMARKS
BLOOMINGTON    MOSUNNY   87  66  49 SW8       29.91S
MADISON *+     SUNNY     86  55  35 SW6       29.94F
NORTH VERNON + SUNNY     88  57  35 S9        29.92F
SEYMOUR +      SUNNY     88  64  45 S7        29.91S

$$



USA.gov is the U.S. government's official web portal to all federal, state and local government web resources and services.